ATLAS 5 CENTAUR DEB, 46606

Orbit data source: Space-Track

ATLAS 5 CENTAUR DEB, 46606 is space debris in HEO originally from a launch on Wed, 17 Oct 2018 UTC launched from the Air Force Eastern Test Range (AFETR). Debris objects in space refer to the collection of defunct objects orbiting the Earth. Examples of debris include non-operational satellites, rocket bodies, and fragments generated from explosions, collisions, or faulty payload assembly.

Loading next visibility...
Identifier
46606, 2018-079CE
Orbit
HEO
Country
Flag of USUS
Related business
Flag of USUnited Launch Alliance/Lockheed Martin (US)
Manufacturer
ULA Decatur
Mission
Spacecraft
Bus & Motor
Unknown
Mass
Unknown
Launch date (UTC)
2018-10-17 (8 years ago)
Launch vehicle
Unknown
Launch site
Air Force Eastern Test Range (AFETR)
Object type
Payload
Rocket body
Debris
Shape & HBR
Unknown shape, 1.1 m
Radar Cross Section
Small (<0.1 m²)

Expand to show TLE details & history
Last TLE update: 2 days ago

TLE from 2 days ago
0 ATLAS 5 CENTAUR DEB
1 46606U 18079CE  26126.01776820 -.00000086  00000-0  00000-0 0  9990
2 46606  13.4726  43.1136 4652559 294.4097  24.6117  1.79383500 41941
Epoch: 2026-05-06T00:25Z
TLE epoch observation values (Epoch: 2026-05-06T00:25:35.172Z)
Latitude
0.00005°
Longitude
172.75769°
Altitude
12,434.772 km
Speed
5.333 km/s
True Right ascension
02h 52m 09s
True Declination
0° 00' 00"
Sunlit
Object was in daylight at epoch
Visualization orbit readout
Latitude
Unknown
Longitude
Unknown
Altitude
Unknown
Speed
Unknown
Apparent Right ascension
Unknown
Apparent Declination
Unknown
Sunlit
N/A
Visualization observer readout
Local Sidereal Time
11:44:06
Azimuth
Unknown
Elevation
Unknown
Doppler factor
Unknown
Orbital elements
Apogee altitude
35,548.646 km
Perigee altitude
8,923.012 km
Semi-major axis
28,613.966 km
Eccentricity
0.46526
Inclination
13.4726°
RAAN
43.1136°
Arg. of periapsis
294.4097°
True anomaly
65.78836°
Mean anomaly
24.6117°
Eccentric anomaly
42.6841°
Mean motion
0.44841 °/min
Orbital period
802.84 mins
BSTAR
0
Loading maneuver chart data...
Computing Atmospheric mass density...

Documentation

Showing up to 5 results
|